{"data":{"norad_id":87271,"epoch":"2026-09-18T06:34:02.089056Z","epoch_age_seconds":210459,"freshness":"STALE","line1":"1 87271U          26261.27363529  .00004495  00000+0  74600-3 0  9990","line2":"2 87271  65.7526 202.2668 0426122 288.4919  67.0315 14.25316021652169","mean_motion":14.25316021,"eccentricity":0.0426122,"inclination_deg":65.7526,"raan_deg":202.2668,"arg_perigee_deg":288.4919,"mean_anomaly_deg":67.0315,"bstar":0.000746,"rev_number":65216,"period_min":101.03022619431,"perigee_km":501.237502899,"apogee_km":1113.6231677099,"semimajor_km":7185.5673353045,"source":"CELESTRAK","updated_at":"2026-09-20T09:00:32.452796Z"}}